Regional Weather Roundup
Issued by NWS Newport/Morehead, NC

Home | Current Version | Previous Version | Text Only | Print | Product List | Glossary On
Versions: 1 2 3 4 5 6 7 8 9 10 11 12 13 14 15 16 17 18 19 20 21 22 23 24 25 26 27 28 29 30 31 32 33 34 35 36 37 38 39 40 41 42 43 44 45 46 47 48 49 50
000
ASUS42 KMHX 312125
RWRMHX
WEATHER ROUNDUP FOR EASTERN NORTH CAROLINA
NATIONAL WEATHER SERVICE NEWPORT/MOREHEAD CITY NC
500 PM EDT FRI JUL 31 2015

NOTE: "FAIR" INDICATES FEW OR NO CLOUDS BELOW 12,000 FEET
WITH NO SIGNIFICANT WEATHER AND/OR OBSTRUCTIONS TO VISIBILITY

NCZ015>017-031-032-045>047-102-103-312200-
NORTH COAST

CITY           SKY/WX    TMP DP  RH WIND       PRES   REMARKS
EDENTON          N/A     85  65  51 SE8       29.88S
ELIZABETH CITY MOSUNNY   87  65  47 E8        29.88S
KITTY HAWK     CLEAR     87  64  45 N8        29.88S
MANTEO         SUNNY     84  65  53 NE12      29.89S

$$

NCZ045>047-081-094-103-104-312200-
CENTRAL COAST

CITY           SKY/WX    TMP DP  RH WIND       PRES   REMARKS
FRISCO         PTSUNNY   85  74  69 N6        29.87F
SWANQUARTER      N/A     88 N/A N/A NE10      29.85R

$$

NCZ095-097-098-100-101-312200-
SOUTHERN COAST

CITY           SKY/WX    TMP DP  RH WIND       PRES   REMARKS
BEAUFORT       MOSUNNY   86  80  82 SW10      29.86F HX 101
CEDAR ISLAND     N/A     86 N/A N/A NE9       29.91S
JACKSONVILLE   PTSUNNY   92  72  51 CALM      29.86F
PINEY ISLAND   MOCLDY   N/A N/A N/A MISG      29.87S
WILMINGTON     RAIN      84  79  85 NE3       29.87S


$$

NCZ011>013-027>030-043-044-078>080-089-090>093-098-312200-
COASTAL PLAIN

CITY           SKY/WX    TMP DP  RH WIND       PRES   REMARKS
AHOSKIE        MOSUNNY   87  66  49 N6        29.88S
CLINTON        SUNNY     93  70  46 N7        29.88S
ELIZABETHTOWN  PTSUNNY   93  69  45 CALM      29.86F
GOLDSBORO      MOSUNNY   91  68  46 N7        29.86S
GREENVILLE     SUNNY     91  68  46 N5        29.89S
HAVELOCK       MOSUNNY   90  74  59 N9        29.87F
KENANSVILLE    SUNNY    N/A N/A N/A CALM      29.88F
KINSTON        MOSUNNY   91  70  49 NE5       29.88S
NEW BERN       MOSUNNY   89  74  60 NE8       29.88F
RICHLANDS      CLOUDY    90  72  55 N6        29.87S
ROCKY MOUNT    MOSUNNY   94  62  34 W9G17     29.88F
WASHINGTON     SUNNY     87  72  60 NE3       29.87F
WHITEVILLE     CLOUDY    83  72  71 SE5       29.87S

$$

AMZ130-135-150-152-154-156-158-170-250-252-270-ANZ085-086-088-633-658-670-312200-
MARINE OBSERVATIONS

STATION/POSITION TIME  TEMP    WIND        PRES    WAVE   SWELL
                       AIR SEA DIR/SP/G            HT/PER HT/PER
                 (UTC) (F)     (DEG/KT/KT) (MB)    (FT/S) (FT/S)
CHESAPEAKE LIGHT 2100   81     320/  2/  2 1012.5
64 E VA BEACH    2050   82 82   20/ 12/ 14 1011.1    4/ 9   3/ 9
DUCK             2100   81 76   30/ 10/ 12 1011.1
2 E DUCK         2011      80                N/A     4/ 4   2/11
OREGON INLET     2100   83 86   10/ 10/ 14 1011.8
13E OREGON INLT  2100      82                N/A     4/10   2/11
HATTERAS CG      2100   83 83   20/  9/ 13 1011.4
DIAMOND BUOY     2050   81 86   20/ 10/ 12 1011.5    3/ 8   3/ 8
CAPE LOOKOUT     2100   85     230/ 11/ 13 1011.1
BEAUFORT LAB     2100   84 85  210/  7/ 13 1010.7
30 SE NEW RVR IN NOT AVBL
27 SE WRIGHTSVLE 2100   81 84  230/  8/ 10   N/A
5 SE WRIGHTSVLE  2008   84 84  220/  8/ 10 1012.0
225 S CAPE HAT   2050   81 81  220/ 19/ 23 1015.2    7/ 8   2/17
41 SE CHARLESTON 2050   82 85  200/ 14/ 14 1012.4    3/ 7   2/ 7

$$


USA.gov is the U.S. government's official web portal to all federal, state and local government web resources and services.